Location: Unspecified
(39.0670°S, 0.0000°E)
Time: 09:12:47
(UTC+00:00)

Envisat - Pass Details

Date: 30 June 2019
Orbit: 764 x 766 km, 98.1° (Epoch: 25 August)

Event Time Altitude Azimuth Distance (km) Brightness Sun altitude
Rises 05:53:29 0° 29° (NNE) 3,225 7.0 -16.2°
Reaches altitude 10° 05:55:50 10° 34° (NE) 2,306 6.2 -15.8°
Maximum altitude 06:00:43 49° 108° (ESE) 993 3.9 -14.9°
Drops below altitude 10° 06:05:40 10° 181° (S) 2,334 5.3 -14.0°
Sets 06:08:03 0° 186° (S) 3,268 6.0 -13.6°
